Location: Bard
(39.9279°N, 78.6592°W)
Time: 07:47:04
(UTC+00:00)

ARIANE 6 FM1 Upper Stage - Pass Details

Date: 16 December 2025
Orbit: 522 x 610 km, 62.0° (Epoch: 14 January)

Event Time Altitude Azimuth Distance (km) Brightness Sun altitude
Rises 11:18:41 0° 226° (SW) 2,699 5.9 -13.2°
Reaches altitude 10° 11:20:57 10° 230° (SW) 1,797 4.9 -12.8°
Maximum altitude 11:24:54 54° 309° (NW) 653 2.6 -12.1°
Drops below altitude 10° 11:28:48 10° 27° (NNE) 1,773 5.3 -11.4°
Sets 11:31:01 0° 32° (NNE) 2,659 6.3 -11.0°
